アトラス彗星

490P/ATLAS (2024)

English version
Home page
Updated on March 24, 2025

---------------------------------------------------------------------

・ プロフィール

符号 490P/2024 C6
検出日 2024年2月4日
検出光度 22.4等
検出者 Pan-STARRS 2 telescope (Haleakala)

・ 軌道要素

Epoch 2024 Oct. 17.0 TT = JDT 2460600.5
T 2024 Sept. 28.18652 TT                                Rudenko
q   1.0687606            (2000.0)            P               Q
n   0.18686519     Peri.  332.52326     +0.18424431     +0.96836261
a   3.0300545      Node   307.60776     -0.85828730     +0.07506759
e   0.6472801      Incl.   12.26630     -0.47895401     +0.23798890
P   5.27
From 368 observations 2019 Feb. 19-2024 Dec. 2, mean residual 0".4.

・ 光度変化

        H = 18.0  G = 0.15

---------------------------------------------------------------------

軌道要素はM.P.E.C. 2024-Y127に掲載されたものです。
光度グラフはComet for Windowsで作成したものです。

---------------------------------------------------------------------

Copyright(C) Seiichi Yoshida (comet@aerith.net). All rights reserved.